Regional Weather Roundup
Issued by NWS

Home | Current Version | Previous Version | Graphics & Text | Print | Product List | Glossary On
Versions: 1 2 3 4 5 6 7 8 9 10 11 12 13 14 15 16 17 18 19 20 21 22 23 24 25 26 27 28 29 30 31 32 33 34 35 36 37 38 39 40 41 42 43 44 45 46 47 48 49 50
000
ASUS43 KOAX 171710
RWRNE

WEATHER ROUNDUP FOR NEBRASKA
NATIONAL WEATHER SERVICE OMAHA NE
1100 AM CST WED JAN 17 2018

NOTES: SATELLITE DATA IS BEING USED TO AUGMENT CLOUD COVER ABOVE
       12000 FEET.
       "FAIR" INDICATES FEW OR NO CLOUDS BELOW 12,000 FEET WITH NO
       SIGNIFICANT WEATHER AND/OR OBSTRUCTIONS TO VISIBILITY.


NEZ001>004-019>022-054>056-171800-
NEBRASKA PANHANDLE

CITY           SKY/WX    TMP DP  RH WIND       PRES   REMARKS
SCOTTSBLUFF    SUNNY     19  10  68 NW8       30.31R WCI   9
ALLIANCE       SUNNY     17   8  67 CALM      30.28R
CHADRON        SUNNY     29  14  53 VRB7      30.32R WCI  22
GORDON         FAIR      32  15  50 NW5       30.28R WCI  27
KIMBALL        SUNNY     40  15  35 NW15      30.29R WCI  32
SIDNEY         SUNNY     32  15  49 NW8       30.29R WCI  25
$$

NEZ057>060-069>072-079>082-171800-
SOUTHWEST NEBRASKA

CITY           SKY/WX    TMP DP  RH WIND       PRES   REMARKS
NORTH PLATTE   SUNNY     19   6  57 W6        30.35R WCI  11
IMPERIAL       SUNNY     22   8  55 CALM      30.33R
LEXINGTON      MOSUNNY   21   7  55 SW8       30.37F WCI  11
MCCOOK         SUNNY     19   9  65 W5        30.38R WCI  12
OGALLALA       SUNNY     24  13  64 W5        30.33R WCI  18
$$

NEZ005>010-023>029-035>040-094-171800-
NORTH CENTRAL NEBRASKA

CITY           SKY/WX    TMP DP  RH WIND       PRES   REMARKS
VALENTINE      SUNNY     29  13  51 W9        30.28R WCI  20
AINSWORTH      SUNNY     28  13  54 W8        30.27S WCI  19
BROKEN BOW     SUNNY     19   6  57 SW7       30.33S WCI  10
O`NEILL        SUNNY     23  11  58 SW14      30.31S WCI  11
ORD            SUNNY     20   7  57 S7        30.36S WCI  11
THEDFORD       SUNNY     27   9  46 W7        30.30R WCI  19
$$

NEZ041-046>049-061>064-073>077-083>087-171800-
SOUTH CENTRAL NEBRASKA

CITY           SKY/WX    TMP DP  RH WIND       PRES   REMARKS
GRAND ISLAND   CLOUDY    20   5  52 SW14G24   30.43R WCI   7
AURORA         CLOUDY    19   6  56 SW15      30.44S WCI   5
HASTINGS       CLOUDY    18   4  54 SW12G18   30.44S WCI   5
HEBRON         CLOUDY    16   6  63 SW7       30.52S WCI   7
HOLDREGE       CLOUDY    19   7  58 SW13      30.40F WCI   6
KEARNEY        CLOUDY    16   4  59 SW15      30.41S WCI   1
YORK           CLOUDY    18   7  62 SW16      30.46S WCI   3
$$

NEZ011>018-030>034-042>045-171800-
NORTHEAST NEBRASKA

CITY           SKY/WX    TMP DP  RH WIND       PRES   REMARKS
NORFOLK        CLOUDY    18   7  62 SW13      30.38S WCI   5
ALBION         CLOUDY    22   8  56 SW12      30.39S WCI  10
BLAIR          CLOUDY    20   7  58 S18       30.47S WCI   4
COLUMBUS       CLOUDY    23   7  50 SW18G25   30.44F WCI   9
FREMONT        CLOUDY    21   8  57 SW12G17   30.48S WCI   9
TEKAMAH        CLOUDY    19   7  59 S15       30.48S WCI   5
WAYNE          CLOUDY    19   6  55 SW15G21   30.39S WCI   5
$$

NEZ050>053-065>068-078-088>093-171800-
SOUTHEAST NEBRASKA

CITY           SKY/WX    TMP DP  RH WIND       PRES   REMARKS
LINCOLN        CLOUDY    20   5  52 SW12G22   30.53S WCI   8
OMAHA EPPLEY   CLOUDY    15   6  67 SE14      30.52S WCI   0
BEATRICE       CLOUDY    16   6  65 SW12      30.54F WCI   3
FALLS CITY     CLOUDY    17   6  62 SW12      30.60S WCI   4
NEBRASKA CITY  CLOUDY    16   7  68 SW15      30.55S WCI   1
PLATTSMOUTH    CLOUDY    14   7  73 S10       30.53S WCI   1
$$

NEZ044-045-051>053-067-171800-
OMAHA AREA

CITY           SKY/WX    TMP DP  RH WIND       PRES   REMARKS
OMAHA EPPLEY   CLOUDY    15   6  67 SE14      30.52S WCI   0
BLAIR          CLOUDY    20   7  58 S18       30.47S WCI   4
FREMONT        CLOUDY    21   8  57 SW12G17   30.48S WCI   9
MILLARD        CLOUDY    22   6  51 S9        30.52S WCI  12
PLATTSMOUTH    CLOUDY    14   7  73 S10       30.53S WCI   1
WAHOO          FAIR      21   7  54 SW14      30.49F WCI   8
$$




USA.gov is the U.S. government's official web portal to all federal, state and local government web resources and services.